This demonstration page uses our WeatherBlox Daily Observations layout. Learn more.

41.55636, -103.73856

Hourly Observations for January 14, 2019

Temp ( °F °C ) Dew Point ( °F °C ) Humidity (%) Winds ( mph kmh ) Pressure ( in mb ) Visibility ( mi km ) Precip ( " mm )
12:58 am 00:58 Clear 35 1.4 20 -6.9 54 54 SSW 3 6 30.33 1027 10 16.0934 N/A
1:58 am 01:58 Clear 27 -3 14 -9.9 59 59 WSW 7 11 30.37 1028 10 16.0934 N/A
2:58 am 02:58 Clear 23 -5 16 -9.1 73 73 W 8 13 30.37 1028 10 16.0934 N/A
3:58 am 03:58 Clear 19 -7.3 12 -11.2 74 74 WNW 9 15 30.38 1029 10 16.0934 N/A
4:58 am 04:58 Clear 21 -6.1 10 -12.4 61 61 W 10 17 30.36 1028 10 16.0934 N/A
5:58 am 05:58 Clear 19 -7.4 7 -14.1 59 59 W 12 19 30.36 1028 10 16.0934 N/A
6:58 am 06:58 Clear 20 -6.4 5 -15.2 50 50 W 13 20 30.33 1027 10 16.0934 N/A
7:58 am 07:58 Clear 20 -6.8 5 -15.2 52 52 W 14 22 30.32 1027 10 16.0934 N/A
8:58 am 08:58 Clear 15 -9.6 3 -16 60 60 WNW 10 17 30.34 1028 10 16.0934 N/A
9:58 am 09:58 Clear 17 -8.5 3 -16.1 55 55 NW 6 9 30.32 1027 10 16.0934 N/A
10:59 am 10:59 Clear 21 -6 3 -16.1 45 45 W 10 17 30.3 1026 10 16.0934 N/A
11:58 am 11:58 Clear 21 -5.9 3 -16 45 45 WNW 16 26 30.29 1026 10 16.0934 N/A
12:58 pm 12:58 Clear 21 -6.3 3 -15.9 47 47 WNW 13 20 30.31 1026 10 16.0934 N/A
1:58 pm 13:58 Clear 18 -7.8 4 -15.4 55 55 W 15 24 30.37 1028 10 16.0934 N/A
2:58 pm 14:58 Sunny 20 -6.6 5 -14.9 52 52 WNW 15 24 30.37 1028 10 16.0934 N/A
3:58 pm 15:58 Sunny 24 -4.3 6 -14.4 46 46 WNW 16 26 30.38 1029 10 16.0934 N/A
4:58 pm 16:58 Sunny 30 -1.1 11 -11.7 45 45 W 12 19 30.37 1028 10 16.0934 N/A
5:58 pm 17:58 Sunny 37 2.5 11 -11.4 35 35 WNW 10 17 30.34 1027 10 16.0934 N/A
6:58 pm 18:58 Sunny 40 4.3 13 -10.4 34 34 WNW 9 15 30.29 1026 10 16.0934 N/A
7:58 pm 19:58 Sunny 41 5 14 -10 33 33 NW 9 15 30.28 1025 10 16.0934 N/A
8:58 pm 20:58 Sunny 42 5.5 14 -10.1 32 32 NW 10 17 30.29 1026 10 16.0934 N/A
9:58 pm 21:58 Sunny 42 5.8 13 -10.3 31 31 NW 6 9 30.28 1025 10 16.0934 N/A
10:58 pm 22:58 Sunny 39 3.8 18 -7.9 43 43 NW 8 13 30.27 1025 10 16.0934 N/A
11:56 pm 23:56 Clear 32 0.1 13 -10.7 44 44 NW 12 19 30.29 1026 10 16.0934 N/A

Powered by AerisWeather